Date String (YYYY-MM-DD hh:mm:ss) UTC,Instrument flags,Ambient pressure (hPa),Sample flow (lpm),Bypass flow (lpm),Sample temperature (°C),Ambient temperature (°C),ASC tube jacket temperature (°C),LED temperature (°C),Box temperature (°C),Sample RH (%),Span deviation,Mass concentration (μg/m³),Mass concentration (μg/m³),Mass concentration (μg/m³)
DateTimeUTC,F1_M11,P_M11,Q1_M11,Q2_M11,T1_M11,T2_M11,T3_M11,T4_M11,T5_M11,U1_M11,ZSPAN_M11,X2_M11,X0_M11,X1_M11
2023-02-13 14:00:00,,0819.7,5.00,0.00,22.5,20.7,00.0,31.4,24.2,07.8,0000.0,0003.26,0005.17,0002.69
2023-02-13 14:01:00,,0819.6,5.00,0.00,22.4,20.7,00.0,31.3,24.2,07.9,0000.0,0003.31,0005.37,0002.76
2023-02-13 14:02:00,,0819.7,5.00,0.00,22.4,20.7,00.0,31.3,24.2,07.9,0000.0,0003.34,0005.41,0002.84
2023-02-13 14:03:00,,0819.7,5.01,0.00,22.4,20.7,00.0,31.3,24.2,07.9,0000.0,0003.35,0005.94,0002.90
2023-02-13 14:04:00,,0819.7,4.98,0.00,22.4,20.6,00.0,31.3,24.1,07.8,0000.0,0003.39,0006.88,0002.94
2023-02-13 14:05:00,,0819.7,4.99,0.00,22.4,20.6,00.0,31.3,24.1,07.8,0000.0,0003.44,0007.24,0002.98
2023-02-13 14:06:00,,0819.6,4.99,0.00,22.4,20.6,00.0,31.3,24.1,07.7,0000.0,0003.48,0007.80,0002.99
2023-02-13 14:07:00,,0819.6,5.01,0.00,22.4,20.6,00.0,31.3,24.1,07.4,0000.0,0003.48,0008.03,0002.97
2023-02-13 14:08:00,,0819.7,5.04,0.00,22.4,21.5,00.0,31.2,24.3,07.5,0000.0,0003.46,0008.48,0002.92
2023-02-13 14:09:00,,0819.7,4.98,0.00,22.5,22.7,00.0,31.2,24.6,07.3,0000.0,0003.42,0008.77,0002.85
2023-02-13 14:10:00,,0819.8,5.00,0.00,22.7,23.3,00.0,31.3,24.8,07.3,0000.0,0003.41,0008.76,0002.79
2023-02-13 14:11:00,,0819.8,5.02,0.00,22.7,22.8,00.0,31.3,24.7,07.4,0000.0,0003.38,0008.78,0002.71
2023-02-13 14:12:00,,0819.8,4.98,0.00,22.7,22.3,00.0,31.4,24.6,07.5,0000.0,0003.36,0008.79,0002.64
2023-02-13 14:13:00,,0819.7,5.00,0.00,22.6,21.8,00.0,31.4,24.4,07.6,0000.0,0003.35,0008.81,0002.58
2023-02-13 14:14:00,,0819.6,5.02,0.00,22.6,21.4,00.0,31.4,24.3,07.7,0000.0,0003.34,0008.49,0002.53
2023-02-13 14:15:00,,0819.7,5.00,0.00,22.6,21.1,00.0,31.4,24.2,07.8,0000.0,0003.32,0008.56,0002.51
2023-02-13 14:16:00,,0819.7,5.00,0.00,22.5,20.9,00.0,31.4,24.2,07.9,0000.0,0003.31,0008.35,0002.53
2023-02-13 14:17:00,,0819.7,4.99,0.00,22.5,20.7,00.0,31.4,24.2,07.9,0000.0,0003.27,0008.45,0002.53
2023-02-13 14:18:00,,0819.7,5.01,0.00,22.5,20.6,00.0,31.4,24.1,07.9,0000.0,0003.26,0008.23,0002.56
2023-02-13 14:19:00,,0819.7,5.00,0.00,22.4,20.4,00.0,31.4,24.1,07.9,0000.0,0003.25,0008.14,0002.58
2023-02-13 14:20:00,,0819.7,4.99,0.00,22.4,20.3,00.0,31.3,24.0,08.0,0000.0,0003.29,0008.11,0002.64
2023-02-13 14:21:00,,0819.6,5.00,0.00,22.3,20.3,00.0,31.3,24.0,08.0,0000.0,0003.30,0008.11,0002.69
2023-02-13 14:22:00,,0819.6,4.99,0.00,22.3,20.3,00.0,31.3,24.0,08.0,0000.0,0003.28,0008.75,0002.73
2023-02-13 14:23:00,,0819.6,5.02,0.00,22.3,20.4,00.0,31.3,24.0,08.0,0000.0,0003.28,0008.81,0002.76
2023-02-13 14:24:00,,0819.5,5.01,0.00,22.3,20.5,00.0,31.3,24.0,08.0,0000.0,0003.26,0008.69,0002.79
2023-02-13 14:25:00,,0819.5,5.01,0.00,22.3,20.4,00.0,31.2,24.0,07.9,0000.0,0003.28,0008.75,0002.80
2023-02-13 14:26:00,,0819.6,5.00,0.00,22.2,20.4,00.0,31.2,24.0,08.0,0000.0,0003.27,0008.08,0002.80
2023-02-13 14:27:00,,0819.6,4.98,0.00,22.3,21.3,00.0,31.2,24.1,08.1,0000.0,0003.22,0007.94,0002.76
2023-02-13 14:28:00,,0819.6,5.03,0.00,22.4,22.6,00.0,31.2,24.4,08.0,0000.0,0003.20,0007.60,0002.74
2023-02-13 14:29:00,,0819.6,4.98,0.00,22.5,22.9,00.0,31.2,24.6,08.0,0000.0,0003.19,0008.22,0002.72
2023-02-13 14:30:00,,0819.6,5.03,0.00,22.6,22.4,00.0,31.3,24.5,08.0,0000.0,0003.21,0007.86,0002.72
2023-02-13 14:31:00,,0819.7,4.97,0.00,22.6,22.0,00.0,31.3,24.4,08.3,0000.0,0003.18,0007.61,0002.69
2023-02-13 14:32:00,,0819.7,5.00,0.00,22.5,21.6,00.0,31.3,24.3,08.7,0000.0,0003.16,0008.02,0002.65
2023-02-13 14:33:00,,0819.6,5.01,0.00,22.5,21.4,00.0,31.3,24.3,08.6,0000.0,0003.16,0007.15,0002.61
2023-02-13 14:34:00,,0819.6,5.00,0.00,22.5,21.2,00.0,31.3,24.3,08.2,0000.0,0003.11,0006.94,0002.56
2023-02-13 14:35:00,,0819.6,5.02,0.00,22.5,21.1,00.0,31.3,24.3,08.3,0000.0,0003.12,0007.30,0002.52
2023-02-13 14:36:00,,0819.7,4.99,0.00,22.5,20.9,00.0,31.3,24.1,08.1,0000.0,0003.07,0007.18,0002.47
2023-02-13 14:37:00,,0819.6,5.01,0.00,22.4,20.6,00.0,31.3,24.0,07.9,0000.0,0003.03,0007.13,0002.42
2023-02-13 14:38:00,,0819.5,5.00,0.00,22.3,20.5,00.0,31.3,23.9,07.7,0000.0,0003.00,0007.14,0002.37
2023-02-13 14:39:00,,0819.4,5.01,0.00,22.3,20.4,00.0,31.3,23.9,07.6,0000.0,0003.00,0006.77,0002.33
2023-02-13 14:40:00,,0819.4,4.96,0.00,22.3,20.4,00.0,31.3,23.9,07.6,0000.0,0003.03,0005.98,0002.30
2023-02-13 14:41:00,,0819.4,5.01,0.00,22.3,20.4,00.0,31.2,23.9,07.6,0000.0,0002.96,0005.89,0002.26
2023-02-13 14:42:00,,0819.4,5.01,0.00,22.2,20.4,00.0,31.2,23.9,08.0,0000.0,0002.97,0005.93,0002.23
2023-02-13 14:43:00,,0819.5,5.01,0.00,22.2,20.4,00.0,31.2,23.9,08.3,0000.0,0002.96,0005.72,0002.22
2023-02-13 14:44:00,,0819.5,5.02,0.00,22.2,20.3,00.0,31.2,23.9,08.5,0000.0,0002.91,0006.85,0002.21
2023-02-13 14:45:00,,0819.5,5.00,0.00,22.2,20.3,00.0,31.2,23.9,08.1,0000.0,0002.89,0006.97,0002.21
2023-02-13 14:46:00,,0819.5,4.99,0.00,22.2,20.5,00.0,31.2,24.0,07.8,0000.0,0002.86,0006.76,0002.19
2023-02-13 14:47:00,,0819.6,4.96,0.00,22.3,21.8,00.0,31.1,24.2,07.8,0000.0,0002.85,0006.75,0002.18
2023-02-13 14:48:00,,0819.6,4.99,0.00,22.4,23.1,00.0,31.1,24.5,07.7,0000.0,0002.81,0006.67,0002.17
2023-02-13 14:49:00,,0819.5,4.89,0.00,22.5,22.9,00.0,31.2,24.6,07.8,0000.0,0002.81,0006.72,0002.18
2023-02-13 14:50:00,,0819.5,4.99,0.00,22.5,22.3,00.0,31.2,24.5,08.1,0000.0,0002.78,0006.65,0002.18
2023-02-13 14:51:00,,0819.5,5.02,0.00,22.5,21.8,00.0,31.3,24.4,07.8,0000.0,0002.73,0006.22,0002.19
2023-02-13 14:52:00,,0819.5,5.01,0.00,22.5,21.6,00.0,31.3,24.3,07.7,0000.0,0002.73,0006.12,0002.20
2023-02-13 14:53:00,,0819.5,5.02,0.00,22.5,21.4,00.0,31.3,24.3,07.7,0000.0,0002.71,0006.07,0002.20
2023-02-13 14:54:00,,0819.5,4.98,0.00,22.5,21.2,00.0,31.3,24.3,08.6,0000.0,0002.69,0005.70,0002.20
2023-02-13 14:55:00,,0819.4,4.99,0.00,22.5,21.0,00.0,31.3,24.2,09.7,0000.0,0002.65,0004.08,0002.18
2023-02-13 14:56:00,,0819.4,5.01,0.00,22.4,20.8,00.0,31.3,24.0,08.4,0000.0,0002.58,0004.32,0002.15
2023-02-13 14:57:00,,0819.3,5.01,0.00,22.4,20.6,00.0,31.3,24.0,08.0,0000.0,0002.56,0004.41,0002.12
2023-02-13 14:58:00,,0819.3,4.95,0.00,22.3,20.6,00.0,31.3,24.0,08.1,0000.0,0002.52,0004.68,0002.11
2023-02-13 14:59:00,,0819.4,5.04,0.00,22.3,20.7,00.0,31.3,24.1,08.0,0000.0,0002.47,0005.04,0002.07
